NOAA 16 DEB, 42359

Orbit data source: Space-Track

NOAA 16 DEB, 42359 is space debris in SSO originally from a launch on Thu, 21 Sep 2000 UTC launched from the Air Force Western Test Range (AFWTR). Debris objects in space refer to the collection of defunct objects orbiting the Earth. Examples of debris include non-operational satellites, rocket bodies, and fragments generated from explosions, collisions, or faulty payload assembly.

Loading next visibility...
NOAA 16 DEB details
Identifier
42359, 2000-055RB
Orbit
SSO
Last TLE update4 days ago
Origin
Flag of USNOAA (US)
ManufacturerUnknown
MissionSpacecraft
Bus & MotorUnknown
MassUnknown
Launch date (UTC)
2000-09-21 (24 years ago)
Launch vehicleUnknown
Launch site
Air Force Western Test Range (AFWTR)
Object type
Payload
Rocket body
Debris
Shape & HBRUnknown
Radar Cross SectionSmall (<0.1 m²)

Expand to show TLE details & history

TLE from 4 days ago
0 NOAA 16 DEB
1 42359U 00055RB  24335.13366033  .00019243  00000-0  66303-2 0  9994
2 42359  98.9527 114.5722 0014620  54.1297 306.1242 14.35867865449107
Epoch: 2024-11-30T03:12Z
Definitive object data (Epoch: 2024-11-30T03:12:28.252Z)
Latitude-0.0001°
Longitude-3.03609°
Altitude768.958 km
Speed7.473 km/s
True Right ascension07h 38m 17s
True Declination0° 00' 00"
Sunlit
Object was in full shadow at TLE epoch
Visualization TLE readout
Latitude-76.733°
Longitude43.01191°
Altitude804.676 km
Speed7.447 km/s
Apparent Right ascension17h 27m 42s
Apparent Declination-68° 43' 32"
Sunlit
Object is in daylight
Visualization observer readout
Local Sidereal Time06:44:59
Azimuth166.367° S
Elevation-59.378°
Doppler factor1
Orbital elements
Apogee altitude779.783 km
Perigee altitude758.883 km
Semi-major axis7,147.47 km
Eccentricity0.001462
Inclination98.9527°
RAAN114.5722°
Arg. of periapsis54.1297°
True anomaly305.98873°
Mean anomaly306.1242°
Eccentric anomaly306.05648°
Mean motion3.59182 °/min
BSTAR0.0066303
Orbital period100.23 mins
Loading maneuver chart data...
Loading historical data...
Loading historical data...
Loading historical data...
Loading historical data...
Loading historical data...
Loading historical data...
Loading historical data...

NOAA 16 DEB Visibility forecast

Observer location: undefined°, undefined

Span
Click to sort rows by Start time (UTC) header in descending order
Start Az.
Max El. time (UTC)
Max El. Az.
Max El.
End time (UTC)
End Az.
9 mins2024-12-04 09:19:48.663Z159.281° S2024-12-04 09:24:48.663Z30.799° NE43.787°2024-12-04 09:28:48.663Z349.629° N
7 mins2024-12-04 21:31:48.663Z50.218° ENE2024-12-04 21:34:48.663Z96.222° ESE23.31°2024-12-04 21:38:48.663Z150.151° SSE
7 mins2024-12-04 23:10:48.663Z346.657° N2024-12-04 23:13:48.663Z293.266° NW30.609°2024-12-04 23:17:48.663Z229.835° WSW
4 mins2024-12-05 08:46:48.663Z122.288° SE2024-12-05 08:49:48.663Z65.804° ENE30.3°2024-12-05 08:50:48.663Z41.169° NE
|